Home   Weather   Antioch   Past weeks

Flag for USA Past Weather in Antioch, California, USA — Yesterday and Last 2 Weeks

Now
43 °F

Light rain. Overcast.


Feels Like: 39 °F
Forecast: 46 / 58 °F
Wind: 6 mph from North

Location: Buchanan Field

Current Time: Dec 7, 2016 at 10:16:00 pm

Latest Report: Dec 7, 2016 at 9:04 pm


Visibility: 3 mi

Pressure: 30.16 "Hg

Humidity: 79%

Dew Point: 37 °F

Location of AntiochLocation

Past Weather in Antioch — Graph

°F

Antioch Temperature Yesterday

Maximum temperature yesterday: 56 °F (at 1:53 pm)
Minimum temperature yesterday: 38 °F (at 5:53 am)
Average temperature yesterday: 47 °F

High & Low Weather Summary for the Past Weeks

 TemperatureHumidityPressure
High63 °F (Dec 2, 12:53 pm)90% (Nov 26, 12:53 am)30.34 "Hg (Nov 26, 12:53 am)
Low34 °F (Dec 7, 5:53 am)25% (Dec 2, 11:53 am)29.77 "Hg (Nov 26, 4:53 am)
Average49 °F68%30.08 "Hg
* Reported Nov 22 8:53 pm — Dec 7 8:53 pm, Antioch, Weather by CustomWeather, © 2016

Note: Actual official high and low records may vary slightly from our data, if they occured in-between our weather recording intervals... More about our weather records

Advertising

Antioch Weather History for the Previous 24 Hours

Scroll right to see more
 ConditionsComfort  
Time TempWeatherWind HumidityBarometerVisibility
8:53 pm
Wed, Dec 7
43 °FLight rain. Overcast.7 mph76%30.11 "Hg4 mi
7:53 pm44 °FLight rain. Overcast.6 mph76%30.10 "Hg9 mi
6:53 pm45 °FLight rain. Overcast.6 mph71%30.10 "Hg10 mi
5:53 pm47 °FOvercast.7 mph59%30.11 "Hg10 mi
4:53 pm48 °FLight rain. Overcast.5 mph50%30.09 "Hg10 mi
3:53 pm49 °FOvercast.6 mph46%30.10 "Hg10 mi
2:53 pm49 °FOvercast.7 mph44%30.10 "Hg10 mi
1:53 pm50 °FMostly cloudy.6 mph41%30.11 "Hg10 mi
12:53 pm50 °FOvercast.5 mph39%30.13 "Hg10 mi
11:53 am49 °FPartly sunny.5 mph39%30.14 "Hg10 mi
10:53 am50 °FPartly sunny.5 mph39%30.16 "Hg10 mi
9:53 am47 °FPartly sunny.5 mph48%30.16 "Hg10 mi
8:53 am41 °FPassing clouds.3 mph74%30.15 "Hg10 mi
7:53 am38 °FSunny.3 mph79%30.14 "Hg10 mi
6:53 am36 °FPassing clouds.5 mph82%30.14 "Hg10 mi
5:53 am34 °FClear.5 mph85%30.12 "Hg10 mi
4:53 am36 °FClear.5 mph85%30.11 "Hg10 mi
3:53 am37 °FClear.5 mph82%30.11 "Hg10 mi
2:53 am37 °FClear.3 mph86%30.12 "Hg10 mi
1:53 am38 °FClear.6 mph83%30.12 "Hg10 mi
12:53 am40 °FClear.3 mph80%30.11 "Hg10 mi
11:53 pm
Tue, Dec 6
41 °FClear.No wind76%30.11 "Hg10 mi
10:53 pm41 °FClear.5 mph80%30.10 "Hg10 mi
Weather by CustomWeather, © 2016

See weather overviewHow to use our weather pages